FW9056 Weather Reports


Display with metric or nautical units.
time (UTC)temp
F
wind
direction
speed
MPH
gust
MPH
rain 1hr
in
rain 24hr
in
rain mn
in
humidity
%
barometer
mb
20260510173044 54 108 0.0 5.0 0.00 0.00 0.00 49 1052.8
20260510172056 54 0.0 0.0 0.00 0.00 0.00 52 1052.7
20260510171027 55 0.0 0.0 0.00 0.00 0.00 47 1052.8
20260510170157 55 105 0.0 5.0 0.00 0.00 0.00 48 1052.9
20260510165046 55 0.0 2.0 0.00 0.00 0.00 48 1053.1
20260510164208 55 267 1.0 5.0 0.00 0.00 0.00 47 1053.0
20260510163058 56 316 1.0 8.0 0.00 0.00 0.00 50 1053.2
20260510162023 56 127 0.0 5.0 0.00 0.00 0.00 49 1053.2
20260510161227 56 24 3.0 8.0 0.00 0.00 0.00 50 1053.4
20260510160113 56 133 2.0 8.0 0.00 0.00 0.00 46 1053.4
20260510155138 55 88 1.0 5.0 0.00 0.00 0.00 50 1053.6
20260510154056 56 155 2.0 10.0 0.00 0.00 0.00 50 1053.7
20260510153119 56 0.0 0.0 0.00 0.00 0.00 48 1053.9
20260510152037 57 287 1.0 8.0 0.00 0.00 0.00 47 1053.9
20260510151044 57 328 0.0 2.0 0.00 0.00 0.00 49 1054.1
20260510150156 57 0.0 0.0 0.00 0.00 0.00 48 1053.9
20260510145026 57 148 0.0 5.0 0.00 0.00 0.00 47 1053.9
20260510144123 56 0.0 0.0 0.00 0.00 0.00 50 1054.0
20260510143119 57 0.0 2.0 0.00 0.00 0.00 50 1054.2
20260510142054 57 152 0.0 5.0 0.00 0.00 0.00 51 1054.3
20260510141056 56 347 0.0 2.0 0.00 0.00 0.00 50 1054.4
20260510135059 57 262 0.0 2.0 0.00 0.00 0.00 50 1054.6
20260510134025 56 329 0.0 5.0 0.00 0.00 0.00 50 1054.7
20260510133141 56 321 0.0 2.0 0.00 0.00 0.00 50 1054.8
20260510132105 55 0.0 2.0 0.00 0.00 0.00 47 1054.6
20260510131050 55 129 3.0 10.0 0.00 0.00 0.00 49 1054.9
20260510130104 55 106 0.0 2.0 0.00 0.00 0.00 51 1054.9
20260510125024 55 68 1.0 5.0 0.00 0.00 0.00 52 1055.1
20260510124109 54 140 0.0 5.0 0.00 0.00 0.00 53 1055.2
20260510123026 54 121 1.0 8.0 0.00 0.00 0.00 53 1055.3
20260510122027 54 319 1.0 8.0 0.00 0.00 0.00 55 1055.3
20260510121214 54 314 0.0 8.0 0.00 0.00 0.00 57 1055.6
20260510120107 54 105 0.0 2.0 0.00 0.00 0.00 58 1055.6
20260510115040 55 285 0.0 8.0 0.00 0.00 0.00 57 1055.7
20260510114050 55 144 1.0 8.0 0.00 0.00 0.00 55 1055.6
20260510113023 55 313 3.0 15.0 0.00 0.00 0.00 57 1055.6
20260510112027 55 57 3.0 8.0 0.00 0.00 0.00 54 1055.9
20260510111040 55 246 2.0 5.0 0.00 0.00 0.00 58 1055.9
20260510110201 54 280 2.0 10.0 0.00 0.00 0.00 58 1055.9
20260510105045 54 67 4.0 13.0 0.00 0.00 0.00 59 1056.1
20260510104038 54 127 3.0 8.0 0.00 0.00 0.00 62 1056.3
20260510103109 55 351 2.0 10.0 0.00 0.00 0.00 62 1056.2
20260510102104 54 230 2.0 10.0 0.00 0.00 0.00 61 1056.3
20260510101131 54 78 2.0 5.0 0.00 0.00 0.00 61 1056.1
20260510100106 54 113 2.0 5.0 0.00 0.00 0.00 63 1056.3
20260510095049 53 294 1.0 8.0 0.00 0.00 0.00 65 1056.4
20260510094024 52 78 1.0 8.0 0.00 0.00 0.00 67 1056.3
20260510093057 52 33 0.0 2.0 0.00 0.00 0.00 68 1056.3
20260510092033 51 311 0.0 5.0 0.00 0.00 0.00 71 1056.5
20260510091054 51 233 2.0 8.0 0.00 0.00 0.00 73 1056.6
20260510090059 52 266 3.0 8.0 0.00 0.00 0.00 74 1056.8
20260510085031 52 81 2.0 8.0 0.00 0.00 0.00 73 1056.8
20260510084027 52 330 2.0 5.0 0.00 0.00 0.00 72 1056.9
20260510083059 52 90 2.0 8.0 0.00 0.00 0.00 73 1056.7
20260510082102 52 157 2.0 5.0 0.00 0.00 0.00 73 1056.8
20260510081137 51 79 0.0 2.0 0.00 0.00 0.00 74 1056.7
20260510080141 51 247 1.0 5.0 0.00 0.00 0.00 75 1056.9
20260510075040 51 94 0.0 2.0 0.00 0.00 0.00 76 1057.0
20260510074030 50 0.0 2.0 0.00 0.00 0.00 78 1056.9
20260510073036 50 55 1.0 5.0 0.00 0.00 0.00 79 1056.9
20260510071530 50 272 1.0 5.0 0.00 0.00 0.00 79 1056.7
20260510070709 50 314 1.0 5.0 0.00 0.00 0.00 80 1056.6
20260510065532 50 91 1.0 10.0 0.00 0.00 0.00 81 1056.6
20260510064748 50 331 0.0 2.0 0.00 0.00 0.00 82 1056.6
20260510063530 50 342 1.0 5.0 0.00 0.00 0.00 83 1056.4
20260510062528 50 2 1.0 5.0 0.00 0.00 0.00 83 1056.5
20260510061711 49 307 1.0 5.0 0.00 0.00 0.00 84 1056.4
20260510060522 49 318 2.0 5.0 0.00 0.00 0.00 84 1056.3
20260510055555 49 324 0.0 5.0 0.00 0.00 0.00 85 1056.3
20260510054040 48 296 1.0 5.0 0.00 0.00 0.00 87 1056.4
20260510053028 48 330 1.0 5.0 0.00 0.00 0.00 88 1056.6
20260510052114 48 0.0 0.0 0.00 0.00 0.00 89 1056.4
20260510051102 48 0.0 0.0 0.00 0.00 0.00 89 1056.3
20260510050036 47 349 0.0 5.0 0.00 0.00 0.00 89 1056.3
20260510045056 47 0.0 0.0 0.00 0.00 0.00 90 1056.6
20260510044028 47 0.0 0.0 0.00 0.00 0.00 90 1056.3
20260510043259 46 0.0 0.0 0.00 0.00 0.00 90 1056.5
20260510042036 46 0.0 0.0 0.00 0.00 0.00 90 1056.3
20260510041038 46 0.0 0.0 0.00 0.00 0.00 91 1056.4
20260510040038 46 0.0 0.0 0.00 0.00 0.00 92 1056.6
20260510035043 46 0.0 0.0 0.00 0.00 0.00 92 1056.6
20260510034028 46 0.0 0.0 0.00 0.00 0.00 92 1056.5
20260510033035 46 0.0 0.0 0.00 0.00 0.00 91 1056.6
20260510032107 46 0.0 0.0 0.00 0.00 0.00 91 1056.6
20260510031025 46 0.0 0.0 0.00 0.00 0.00 91 1056.6
20260510030142 46 0.0 0.0 0.00 0.00 0.00 91 1056.6
20260510025100 47 0.0 0.0 0.00 0.00 0.00 91 1056.6
20260510024027 47 0.0 0.0 0.00 0.00 0.00 92 1056.6
20260510023104 47 0.0 0.0 0.00 0.00 0.00 91 1056.6
20260510022101 47 0.0 0.0 0.00 0.00 0.00 91 1056.7
20260510021105 47 0.0 0.0 0.00 0.00 0.00 91 1056.6
20260510020052 47 0.0 0.0 0.00 0.00 0.00 91 1056.7
20260510015037 47 0.0 0.0 0.00 0.00 0.00 91 1056.9
20260510014229 47 0.0 0.0 0.00 0.00 0.00 91 1056.7
20260510013052 47 0.0 0.0 0.00 0.00 0.00 91 1056.6
20260510012221 47 0.0 0.0 0.00 0.00 0.00 91 1056.9
20260510011024 47 0.0 0.0 0.00 0.00 0.00 90 1056.8
20260510010116 47 0.0 0.0 0.00 0.00 0.00 90 1056.9
20260510005156 47 0.0 0.0 0.00 0.00 0.00 89 1056.9
20260510004051 47 0.0 0.0 0.00 0.00 0.00 89 1056.9
20260510003029 47 0.0 0.0 0.00 0.00 0.00 88 1056.9
20260510002045 48 0.0 0.0 0.00 0.00 0.00 88 1056.8
20260510001201 48 0.0 0.0 0.00 0.00 0.00 87 1056.6
20260509235042 48 0.0 0.0 0.00 0.00 0.00 86 1056.7
20260509234037 48 0.0 0.0 0.00 0.00 0.00 85 1056.7
20260509233028 49 0.0 0.0 0.00 0.00 0.00 85 1057.1
20260509232102 49 0.0 0.0 0.00 0.00 0.00 84 1057.1
20260509231106 49 0.0 0.0 0.00 0.00 0.00 84 1057.1
20260509230156 50 0.0 0.0 0.00 0.00 0.00 83 1057.1
20260509225027 50 0.0 0.0 0.00 0.00 0.00 83 1056.9
20260509224024 50 0.0 0.0 0.00 0.00 0.00 83 1056.8
20260509223036 50 0.0 0.0 0.00 0.00 0.00 83 1056.7
20260509222036 50 0.0 0.0 0.00 0.00 0.00 83 1056.7
20260509221021 50 0.0 0.0 0.00 0.00 0.00 81 1056.6
20260509220036 51 0.0 2.0 0.00 0.00 0.00 80 1056.5
20260509215029 51 0.0 0.0 0.00 0.00 0.00 74 1056.5
20260509214108 52 0.0 0.0 0.00 0.00 0.00 67 1056.6
20260509213041 53 0.0 2.0 0.00 0.00 0.00 62 1056.4
20260509212102 54 338 1.0 8.0 0.00 0.00 0.00 57 1056.2
20260509211044 54 0.0 0.0 0.00 0.00 0.00 52 1056.1
20260509210123 55 0.0 2.0 0.00 0.00 0.00 51 1056.1
20260509205153 55 0.0 2.0 0.00 0.00 0.00 50 1055.7
20260509204030 56 0.0 0.0 0.00 0.00 0.00 49 1055.7
20260509203143 57 0.0 0.0 0.00 0.00 0.00 49 1055.8
20260509202034 57 0.0 0.0 0.00 0.00 0.00 47 1055.8
20260509201023 58 0.0 0.0 0.00 0.00 0.00 46 1055.6
20260509200035 59 0.0 0.0 0.00 0.00 0.00 45 1055.6
20260509195045 59 0.0 2.0 0.00 0.00 0.00 44 1055.4
20260509194132 60 0.0 0.0 0.00 0.00 0.00 43 1055.4
20260509193319 61 0.0 0.0 0.00 0.00 0.00 40 1055.2
20260509192239 62 0.0 0.0 0.00 0.00 0.00 39 1055.1
20260509191034 62 0.0 0.0 0.00 0.00 0.00 39 1054.9
20260509190126 63 0.0 0.0 0.00 0.00 0.00 38 1054.9
20260509185042 63 0.0 0.0 0.00 0.00 0.00 38 1055.0
20260509184153 64 33 0.0 2.0 0.00 0.00 0.00 36 1054.6
20260509183111 64 0.0 0.0 0.00 0.00 0.00 36 1054.6
20260509182044 64 0.0 0.0 0.00 0.00 0.00 37 1054.4
20260509181110 65 0.0 0.0 0.00 0.00 0.00 36 1054.4
20260509180046 65 128 0.0 2.0 0.00 0.00 0.00 36 1054.3
20260509175055 65 92 0.0 5.0 0.00 0.00 0.00 37 1054.5
20260509174142 66 0.0 0.0 0.00 0.00 0.00 37 1054.4